Location: Washington
(38.8950°N, 77.0370°W)
Time: 03:47:11
(UTC-04:00)

ISS - All Passes

Search period start: 25 October 2014 00:00
Search period end: 03 November 2014 23:00
Orbit: 412 x 416 km, 51.6° (Epoch: 25 October)

Date Brightness Start Highest point End Pass type
(mag) Time Alt. Az. Time Alt. Az. Time Alt. Az.
25 Oct - 12:21:34 10° SSW 12:24:39 36° SE 12:27:45 10° ENE daylight
25 Oct - 13:58:31 10° W 14:01:23 26° NNW 14:04:17 10° NNE daylight
25 Oct - 15:38:27 10° NNW 15:39:00 10° N 15:39:32 10° N daylight
25 Oct - 17:15:45 10° N 17:16:56 11° NNE 17:18:06 10° NNE daylight
25 Oct - 18:51:18 10° NW 18:54:24 35° NNE 18:57:30 10° E visible
25 Oct - 20:28:12 10° WNW 20:30:59 24° SW 20:33:44 10° S visible
26 Oct - 11:33:04 10° S 11:35:35 20° SE 11:38:06 10° E daylight
26 Oct - 13:08:54 10° WSW 13:12:04 41° NNW 13:15:15 10° NE daylight
26 Oct - 14:48:03 10° NW 14:49:28 12° NNW 14:50:52 10° N daylight
26 Oct - 18:02:17 10° NNW 18:05:03 23° NNE 18:07:48 10° E daylight
26 Oct - 19:38:40 10° WNW 19:41:52 45° SW 19:45:04 10° SSE visible
27 Oct - 10:45:36 10° SE 10:46:32 11° SE 10:47:27 10° ESE daylight
27 Oct - 12:19:27 10° WSW 12:22:46 72° NW 12:26:06 10° NE daylight
27 Oct - 13:57:53 10° WNW 13:59:56 15° NNW 14:01:59 10° NNE daylight
27 Oct - 17:13:18 10° NNW 17:15:35 17° NNE 17:17:52 10° ENE daylight
27 Oct - 18:49:19 10° NW 18:52:39 88° SW 18:55:59 10° SE visible
28 Oct - 11:30:14 10° SW 11:33:30 60° SE 11:36:47 10° ENE daylight
28 Oct - 13:07:51 10° WNW 13:10:25 20° NNW 13:12:59 10° NNE daylight
28 Oct - 16:24:21 10° NNW 16:26:02 13° NNE 16:27:43 10° NE daylight
28 Oct - 18:00:04 10° NW 18:03:20 51° NE 18:06:35 10° ESE daylight
28 Oct - 19:37:37 10° W 19:39:43 16° SW 19:41:48 10° S visible
29 Oct - 10:41:17 10° SSW 10:44:15 31° SE 10:47:15 10° ENE daylight
29 Oct - 12:17:58 10° W 12:20:55 29° NNW 12:23:54 10° NNE daylight
29 Oct - 13:57:40 10° NNW 13:58:28 11° N 13:59:16 10° N daylight
29 Oct - 15:35:28 10° N 15:36:24 11° N 15:37:20 10° NNE daylight
29 Oct - 17:10:53 10° NW 17:13:54 31° NNE 17:16:55 10° E daylight
29 Oct - 18:47:37 10° WNW 18:50:32 28° SW 18:53:27 10° SSE visible
30 Oct - 09:52:48 10° S 09:55:03 17° SE 09:57:18 10° E daylight
30 Oct - 11:28:14 10° WSW 11:31:27 47° NW 11:34:41 10° NE daylight
30 Oct - 13:07:12 10° NW 13:08:47 13° NNW 13:10:22 10° NNE daylight
30 Oct - 16:21:44 10° NNW 16:24:22 21° NNE 16:27:00 10° ENE daylight
30 Oct - 17:57:59 10° WNW 18:01:15 54° SW 18:04:30 10° SE daylight
31 Oct - 10:38:42 10° SW 10:42:01 85° NW 10:45:21 10° NE daylight
31 Oct - 12:16:55 10° WNW 12:19:06 16° NNW 12:21:18 10° NNE daylight
31 Oct - 15:32:37 10° NNW 15:34:44 16° NNE 15:36:51 10° ENE daylight
31 Oct - 17:08:32 10° NW 17:11:52 79° NE 17:15:11 10° SE daylight
01 Nov - 09:49:24 10° SSW 09:52:36 49° SE 09:55:50 10° ENE daylight
01 Nov - 11:26:46 10° W 11:29:27 22° NNW 11:32:08 10° NNE daylight
01 Nov - 14:43:32 10° NNW 14:45:01 12° NNE 14:46:29 10° NE daylight
01 Nov - 16:19:09 10° NW 16:22:22 43° NNE 16:25:33 10° ESE daylight
01 Nov - 17:56:24 10° W 17:58:48 19° SW 18:01:11 10° S daylight
02 Nov - 08:00:25 10° SSW 08:03:14 26° SE 08:06:03 10° ENE daylight
02 Nov - 09:36:46 10° W 09:39:49 33° NNW 09:42:52 10° NE daylight
02 Nov - 11:16:15 10° NNW 11:17:17 11° NNW 11:18:19 10° N daylight
02 Nov - 12:54:35 10° N 12:55:12 10° N 12:55:49 10° NNE daylight
02 Nov - 14:29:50 10° NNW 14:32:45 27° NNE 14:35:40 10° E daylight
02 Nov - 16:06:24 10° WNW 16:09:27 34° SW 16:12:29 10° SSE daylight
03 Nov - 07:12:01 10° SSE 07:13:53 14° SE 07:15:45 10° E daylight
03 Nov - 08:46:57 10° WSW 08:50:12 55° NW 08:53:29 10° NE daylight
03 Nov - 10:25:41 10° NW 10:27:27 14° NNW 10:29:13 10° NNE daylight
03 Nov - 13:40:33 10° NNW 13:43:03 19° NNE 13:45:32 10° ENE daylight
03 Nov - 15:16:41 10° WNW 15:19:59 66° SW 15:23:16 10° SE daylight
